Weather Roundup
Issued by NWS

Home | Current Version | Previous Version | Text Only | Print | Product List | Glossary On
Versions: 1 2 3 4 5 6 7 8 9 10 11 12 13 14 15 16 17 18 19 20 21 22 23 24 25 26 27 28 29 30 31 32 33 34 35 36 37 38 39 40 41 42 43 44 45 46 47 48 49 50
000
NZUS93 KARX 251310
HRRWXR

CURRENT HOURLY OBSERVATIONS ACROSS
MUCH OF THE UPPER MISSISSIPPI VALLEY
NATIONAL WEATHER SERVICE LA CROSSE WI
700 AM CST THU DEC 25 2014


...SOUTHEAST MINNESOTA...


CITY           SKY/WX    TMP DP  RH WIND       PRES   REMARKS
ROCHESTER      CLOUDY    28  26  92 S15       29.69R WCI  16
ROCHESTER/MAYO CLOUDY    29  27  92 S10G17    29.69R WCI  20
WINONA         CLOUDY    32  28  86 CALM      29.74R
AUSTIN         CLOUDY    28  27  93 S14       29.68S WCI  17
ALBERT LEA     CLOUDY    30  28  93 S8        29.67R WCI  23
DODGE CENTER   CLOUDY    28  28 100 S12       29.67R FOG     WCI  18
PRESTON        CLOUDY    28  26  92 S12       29.71R FOG     WCI  18
OWATONNA       CLOUDY    30  27  86 S12       29.68R FOG     WCI  21
FARIBAULT      CLOUDY    30  27  86 S7        29.68R WCI  23
$$

...ELSEWHERE IN MINNESOTA...


CITY           SKY/WX    TMP DP  RH WIND       PRES   REMARKS
MINNEAPOLIS    CLOUDY    30  26  85 S8        29.67R WCI  22
INTNL FALLS    CLOUDY    29  26  89 W6        29.50R WCI  23
DULUTH         CLOUDY    31  27  85 SW12      29.55R WCI  22
RED WING       CLOUDY    30  27  86 S8        29.69R WCI  23
REDWOOD FALLS  CLOUDY    30  27  88 S8        29.62R WCI  22
MANKATO        CLOUDY    30  25  80 S12       29.65R WCI  21
WORTHINGTON    CLOUDY    28 -18  12 S8        29.59R WCI  20
FAIRMONT       CLOUDY    30  25  80 S14       29.63S WCI  20
$$

...SOUTHWEST WISCONSIN...


CITY           SKY/WX    TMP DP  RH WIND       PRES   REMARKS
LA CROSSE      CLOUDY    32  26  78 S9        29.74R WCI  24
PRAIRIE DU CHI CLOUDY    32  27  80 S8        29.78R WCI  25
BOSCOBEL       CLOUDY    33  27  78 S8        29.78R WCI  26
LONE ROCK      CLOUDY    35  26  69 SW9       29.78R WCI  28
PLATTEVILLE    CLOUDY    32  28  88 CALM      29.80R
FORT MC COY    CLOUDY    31  27  84 SW6       29.75R WCI  25
CAMP DOUGLAS   CLOUDY    31  31  99 SW10      29.74R WCI  22
VIROQUA        CLOUDY    30  30 100 SW9       29.73R WCI  21
WIS DELLS      CLOUDY    31  27  84 SW12      29.75R WCI  22
$$

...ELSEWHERE IN WISCONSIN...


CITY           SKY/WX    TMP DP  RH WIND       PRES   REMARKS
MILWAUKEE      CLOUDY    35  27  72 SW8       29.80R WCI  29
MADISON        CLOUDY    32  26  78 SW10G21   29.78R WCI  24
GREEN BAY      CLOUDY    34  30  85 SW9       29.71S WCI  27
EAU CLAIRE     CLOUDY    31  26  82 SW8       29.68R WCI  23
BLACK RVR FLS  CLOUDY    31  26  83 SW7       29.72R WCI  24
MEDFORD        CLOUDY    29  27  90 SW9       29.66R WCI  21
WAUSAU         CLOUDY    31  26  82 W12       29.66R WCI  22
WIS RAPIDS     CLOUDY    32  26  78 SW7       29.71S WCI  26
MARSHFIELD     CLOUDY    31  27  85 SW10      29.67S WCI  22
RICE LAKE      CLOUDY    31  28  86 S9        29.66R WCI  23
$$

...NORTHEAST IOWA...


CITY           SKY/WX    TMP DP  RH WIND       PRES   REMARKS
DECORAH        CLOUDY    30  28  93 S8        29.73R WCI  23
MASON CITY     CLOUDY    29  27  92 S13       29.70R WCI  19
CHARLES CITY   CLOUDY    30  30 100 S14       29.73R WCI  20
OELWEIN        CLOUDY    30  28  93 S16       29.77R WCI  19
$$

...ELSEWHERE IN IOWA...


CITY           SKY/WX    TMP DP  RH WIND       PRES   REMARKS
DES MOINES     CLOUDY    32  27  81 S13       29.73S WCI  22
IOWA CITY      PTCLDY    31  28  89 S8        29.83R WCI  23
FORT DODGE     CLOUDY    30  25  80 S8        29.67R WCI  23
$$

...NORTHERN ILLINOIS...


CITY           SKY/WX    TMP DP  RH WIND       PRES   REMARKS
CHICAGO-OHARE  CLOUDY    34  28  79 SW15      29.85R WCI  24
CHICAGO-MIDWAY CLOUDY    35  29  78 SW12G25   29.87R WCI  27
MOLINE         CLOUDY    34  27  75 SW10      29.86R WCI  26
ROCKFORD       CLOUDY    33  27  78 SW14G22   29.86R WCI  23
PEORIA         CLOUDY    36  28  73 SW10      29.92R WCI  28
$$

NOTE: "FAIR" INDICATES FEW OR NO CLOUDS BELOW 12,000 FEET WITH NO
SIGNIFICANT WEATHER AND/OR OBSTRUCTIONS TO VISIBILITY. WIND
SPEEDS ARE IN MILES-PER-HOUR.



USA.gov is the U.S. government's official web portal to all federal, state and local government web resources and services.